Year,Month,Day,Hour,Minute,Value (Times are PST for temperature in C)
2013,03,25,00,00,5.90
2013,03,25,00,01,5.90
2013,03,25,00,02,5.90
2013,03,25,00,03,5.90
2013,03,25,00,04,5.90
2013,03,25,00,05,5.90
2013,03,25,00,06,5.90
2013,03,25,00,07,5.90
2013,03,25,00,08,5.80
2013,03,25,00,09,5.80
2013,03,25,00,10,5.80
2013,03,25,00,11,5.80
2013,03,25,00,12,5.80
2013,03,25,00,13,5.80
2013,03,25,00,14,5.80
2013,03,25,00,15,5.80
2013,03,25,00,16,5.80
2013,03,25,00,17,5.80
2013,03,25,00,18,5.80
2013,03,25,00,19,5.80
2013,03,25,00,20,5.80
2013,03,25,00,21,5.80
2013,03,25,00,22,5.80
2013,03,25,00,23,5.80
2013,03,25,00,24,5.80
2013,03,25,00,25,5.80
2013,03,25,00,26,5.90
2013,03,25,00,27,5.90
2013,03,25,00,28,5.90
2013,03,25,00,29,5.90
2013,03,25,00,30,5.90
2013,03,25,00,31,5.90
2013,03,25,00,32,5.90
2013,03,25,00,33,5.90
2013,03,25,00,34,5.90
2013,03,25,00,35,5.90
2013,03,25,00,36,5.90
2013,03,25,00,37,5.90
2013,03,25,00,38,6.00
2013,03,25,00,39,6.00
2013,03,25,00,40,6.00
2013,03,25,00,41,6.00
2013,03,25,00,42,6.00
2013,03,25,00,43,6.00
2013,03,25,00,44,6.00
2013,03,25,00,45,6.00
2013,03,25,00,46,6.00
2013,03,25,00,47,6.00
2013,03,25,00,48,6.00
2013,03,25,00,49,6.00
2013,03,25,00,50,5.90
2013,03,25,00,51,5.90
2013,03,25,00,52,5.90
2013,03,25,00,53,5.90
2013,03,25,00,54,5.80
2013,03,25,00,55,5.80
2013,03,25,00,56,5.80
2013,03,25,00,57,5.80
2013,03,25,00,58,5.70
2013,03,25,00,59,5.70
2013,03,25,01,00,5.70
2013,03,25,01,01,5.70
2013,03,25,01,02,5.70
2013,03,25,01,03,5.60
2013,03,25,01,04,5.60
2013,03,25,01,05,5.60
2013,03,25,01,06,5.60
2013,03,25,01,07,5.50
2013,03,25,01,08,5.50
2013,03,25,01,09,5.50
2013,03,25,01,10,5.50
2013,03,25,01,11,5.40
2013,03,25,01,12,5.40
2013,03,25,01,13,5.40
2013,03,25,01,14,5.40
2013,03,25,01,15,5.40
2013,03,25,01,16,5.40
2013,03,25,01,17,5.30
2013,03,25,01,18,5.30
2013,03,25,01,19,5.30
2013,03,25,01,20,5.30
2013,03,25,01,21,5.30
2013,03,25,01,22,5.20
2013,03,25,01,23,5.20
2013,03,25,01,24,5.20
2013,03,25,01,25,5.20
2013,03,25,01,26,5.20
2013,03,25,01,27,5.20
2013,03,25,01,28,5.20
2013,03,25,01,29,5.20
2013,03,25,01,30,5.20
2013,03,25,01,31,5.20
2013,03,25,01,32,5.20
2013,03,25,01,33,5.20
2013,03,25,01,34,5.20
2013,03,25,01,35,5.20
2013,03,25,01,36,5.20
2013,03,25,01,37,5.20
2013,03,25,01,38,5.20
2013,03,25,01,39,5.20
2013,03,25,01,40,5.20
2013,03,25,01,41,5.20
2013,03,25,01,42,5.10
2013,03,25,01,43,5.10
2013,03,25,01,44,5.10
2013,03,25,01,45,5.10
2013,03,25,01,46,5.10
2013,03,25,01,47,5.10
2013,03,25,01,48,5.00
2013,03,25,01,49,5.00
2013,03,25,01,50,5.00
2013,03,25,01,51,5.00
2013,03,25,01,52,4.90
2013,03,25,01,53,4.90
2013,03,25,01,54,4.90
2013,03,25,01,55,4.90
2013,03,25,01,56,4.90
2013,03,25,01,57,4.90
2013,03,25,01,58,4.90
2013,03,25,01,59,5.00
2013,03,25,02,00,5.00
2013,03,25,02,01,5.00
2013,03,25,02,02,5.10
2013,03,25,02,03,5.10
2013,03,25,02,04,5.10
2013,03,25,02,05,5.10
2013,03,25,02,06,5.20
2013,03,25,02,07,5.20
2013,03,25,02,08,5.20
2013,03,25,02,09,5.30
2013,03,25,02,10,5.30
2013,03,25,02,11,5.30
2013,03,25,02,12,5.30
2013,03,25,02,13,5.30
2013,03,25,02,14,5.30
2013,03,25,02,15,5.30
2013,03,25,02,16,5.30
2013,03,25,02,17,5.30
2013,03,25,02,18,5.30
2013,03,25,02,19,5.30
2013,03,25,02,20,5.30
2013,03,25,02,21,5.30
2013,03,25,02,22,5.30
2013,03,25,02,23,5.30
2013,03,25,02,24,5.40
2013,03,25,02,25,5.40
2013,03,25,02,26,5.40
2013,03,25,02,27,5.40
2013,03,25,02,28,5.40
2013,03,25,02,29,5.40
2013,03,25,02,30,5.40
2013,03,25,02,31,5.40
2013,03,25,02,32,5.40
2013,03,25,02,33,5.40
2013,03,25,02,34,5.40
2013,03,25,02,35,5.40
2013,03,25,02,36,5.50
2013,03,25,02,37,5.50
2013,03,25,02,38,5.50
2013,03,25,02,39,5.50
2013,03,25,02,40,5.50
2013,03,25,02,41,5.50
2013,03,25,02,42,5.50
2013,03,25,02,43,5.50
2013,03,25,02,44,5.50
2013,03,25,02,45,5.50
2013,03,25,02,46,5.50
2013,03,25,02,47,5.50
2013,03,25,02,48,5.50
2013,03,25,02,49,5.60
2013,03,25,02,50,5.60
2013,03,25,02,51,5.60
2013,03,25,02,52,5.60
2013,03,25,02,53,5.60
2013,03,25,02,54,5.60
2013,03,25,02,55,5.60
2013,03,25,02,56,5.60
2013,03,25,02,57,5.60
2013,03,25,02,58,5.60
2013,03,25,02,59,5.50
2013,03,25,03,00,5.50
2013,03,25,03,01,5.50
2013,03,25,03,02,5.60
2013,03,25,03,03,5.60
2013,03,25,03,04,5.60
2013,03,25,03,05,5.60
2013,03,25,03,06,5.60
2013,03,25,03,07,5.60
2013,03,25,03,08,5.60
2013,03,25,03,09,5.60
2013,03,25,03,10,5.70
2013,03,25,03,11,5.70
2013,03,25,03,12,5.70
2013,03,25,03,13,5.70
2013,03,25,03,14,5.70
2013,03,25,03,15,5.70
2013,03,25,03,16,5.60
2013,03,25,03,17,5.60
2013,03,25,03,18,5.60
2013,03,25,03,19,5.50
2013,03,25,03,20,5.50
2013,03,25,03,21,5.40
2013,03,25,03,22,5.40
2013,03,25,03,23,5.30
2013,03,25,03,24,5.30
2013,03,25,03,25,5.20
2013,03,25,03,26,5.20
2013,03,25,03,27,5.20
2013,03,25,03,28,5.20
2013,03,25,03,29,5.10
2013,03,25,03,30,5.10
2013,03,25,03,31,5.10
2013,03,25,03,32,5.10
2013,03,25,03,33,5.20
2013,03,25,03,34,5.20
2013,03,25,03,35,5.20
2013,03,25,03,36,5.20
2013,03,25,03,37,5.20
2013,03,25,03,38,5.20
2013,03,25,03,39,5.20
2013,03,25,03,40,5.20
2013,03,25,03,41,5.20
2013,03,25,03,42,5.20
2013,03,25,03,43,5.20
2013,03,25,03,44,5.20
2013,03,25,03,45,5.20
2013,03,25,03,46,5.20
2013,03,25,03,47,5.20
2013,03,25,03,48,5.20
2013,03,25,03,49,5.20
2013,03,25,03,50,5.20
2013,03,25,03,51,5.10
2013,03,25,03,52,5.10
2013,03,25,03,53,5.10
2013,03,25,03,54,5.10
2013,03,25,03,55,5.10
2013,03,25,03,56,5.10
2013,03,25,03,57,5.10
2013,03,25,03,58,5.10
2013,03,25,03,59,5.00
2013,03,25,04,00,5.00
2013,03,25,04,01,5.00
2013,03,25,04,02,5.00
2013,03,25,04,03,5.00
2013,03,25,04,04,5.00
2013,03,25,04,05,5.00
2013,03,25,04,06,5.00
2013,03,25,04,07,5.00
2013,03,25,04,08,5.00
2013,03,25,04,09,5.10
2013,03,25,04,10,5.10
2013,03,25,04,11,5.10
2013,03,25,04,12,5.20
2013,03,25,04,13,5.20
2013,03,25,04,14,5.30
2013,03,25,04,15,5.30
2013,03,25,04,16,5.30
2013,03,25,04,17,5.40
2013,03,25,04,18,5.40
2013,03,25,04,19,5.40
2013,03,25,04,20,5.50
2013,03,25,04,21,5.50
2013,03,25,04,22,5.50
2013,03,25,04,23,5.50
2013,03,25,04,24,5.60
2013,03,25,04,25,5.60
2013,03,25,04,26,5.60
2013,03,25,04,27,5.60
2013,03,25,04,28,5.60
2013,03,25,04,29,5.60
2013,03,25,04,30,5.60
2013,03,25,04,31,5.60
2013,03,25,04,32,5.60
2013,03,25,04,33,5.70
2013,03,25,04,34,5.70
2013,03,25,04,35,5.70
2013,03,25,04,36,5.70
2013,03,25,04,37,5.70
2013,03,25,04,38,5.70
2013,03,25,04,39,5.70
2013,03,25,04,40,5.70
2013,03,25,04,41,5.70
2013,03,25,04,42,5.70
2013,03,25,04,43,5.60
2013,03,25,04,44,5.60
2013,03,25,04,45,5.60
2013,03,25,04,46,5.60
2013,03,25,04,47,5.60
2013,03,25,04,48,5.60
2013,03,25,04,49,5.60
2013,03,25,04,50,5.50
2013,03,25,04,51,5.60
2013,03,25,04,52,5.60
2013,03,25,04,53,5.60
2013,03,25,04,54,5.60
2013,03,25,04,55,5.60
2013,03,25,04,56,5.60
2013,03,25,04,57,5.60
2013,03,25,04,58,5.60
2013,03,25,04,59,5.50
2013,03,25,05,00,5.50
2013,03,25,05,01,5.50
2013,03,25,05,02,5.50
2013,03,25,05,03,5.40
2013,03,25,05,04,5.40
2013,03,25,05,05,5.40
2013,03,25,05,06,5.40
2013,03,25,05,07,5.40
2013,03,25,05,08,5.30
2013,03,25,05,09,5.30
2013,03,25,05,10,5.30
2013,03,25,05,11,5.30
2013,03,25,05,12,5.30
2013,03,25,05,13,5.30
2013,03,25,05,14,5.30
2013,03,25,05,15,5.30
2013,03,25,05,16,5.20
2013,03,25,05,17,5.20
2013,03,25,05,18,5.20
2013,03,25,05,19,5.20
2013,03,25,05,20,5.20
2013,03,25,05,21,5.20
2013,03,25,05,22,5.20
2013,03,25,05,23,5.20
2013,03,25,05,24,5.20
2013,03,25,05,25,5.10
2013,03,25,05,26,5.10
2013,03,25,05,27,5.10
2013,03,25,05,28,5.10
2013,03,25,05,29,5.10
2013,03,25,05,30,5.10
2013,03,25,05,31,5.10
2013,03,25,05,32,5.10
2013,03,25,05,33,5.10
2013,03,25,05,34,5.10
2013,03,25,05,35,5.10
2013,03,25,05,36,5.10
2013,03,25,05,37,5.10
2013,03,25,05,38,5.10
2013,03,25,05,39,5.10
2013,03,25,05,40,5.10
2013,03,25,05,41,5.10
2013,03,25,05,42,5.10
2013,03,25,05,43,5.10
2013,03,25,05,44,5.10
2013,03,25,05,45,5.20
2013,03,25,05,46,5.20
2013,03,25,05,47,5.20
2013,03,25,05,48,5.20
2013,03,25,05,49,5.20
2013,03,25,05,50,5.20
2013,03,25,05,51,5.20
2013,03,25,05,52,5.20
2013,03,25,05,53,5.20
2013,03,25,05,54,5.20
2013,03,25,05,55,5.20
2013,03,25,05,56,5.20
2013,03,25,05,57,5.20
2013,03,25,05,58,5.20
2013,03,25,05,59,5.20
2013,03,25,06,00,5.20
2013,03,25,06,01,5.20
2013,03,25,06,02,5.10
2013,03,25,06,03,5.10
2013,03,25,06,04,5.10
2013,03,25,06,05,5.10
2013,03,25,06,06,5.10
2013,03,25,06,07,5.10
2013,03,25,06,08,5.10
2013,03,25,06,09,5.10
2013,03,25,06,10,5.10
2013,03,25,06,11,5.10
2013,03,25,06,12,5.00
2013,03,25,06,13,5.00
2013,03,25,06,14,5.00
2013,03,25,06,15,5.00
2013,03,25,06,16,5.00
2013,03,25,06,17,5.00
2013,03,25,06,18,5.00
2013,03,25,06,19,4.90
2013,03,25,06,20,4.90
2013,03,25,06,21,4.90
2013,03,25,06,22,5.00
2013,03,25,06,23,5.00
2013,03,25,06,24,5.00
2013,03,25,06,25,5.00
2013,03,25,06,26,5.00
2013,03,25,06,27,5.00
2013,03,25,06,28,5.00
2013,03,25,06,29,5.10
2013,03,25,06,30,5.10
2013,03,25,06,31,5.00
2013,03,25,06,32,5.00
2013,03,25,06,33,5.10
2013,03,25,06,34,5.10
2013,03,25,06,35,5.10
2013,03,25,06,36,5.10
2013,03,25,06,37,5.10
2013,03,25,06,38,5.10
2013,03,25,06,39,5.10
2013,03,25,06,40,5.10
2013,03,25,06,41,5.10
2013,03,25,06,42,5.10
2013,03,25,06,43,5.10
2013,03,25,06,44,5.10
2013,03,25,06,45,5.10
2013,03,25,06,46,5.20
2013,03,25,06,47,5.20
2013,03,25,06,48,5.20
2013,03,25,06,49,5.20
2013,03,25,06,50,5.20
2013,03,25,06,51,5.20
2013,03,25,06,52,5.20
2013,03,25,06,53,5.20
2013,03,25,06,54,5.20
2013,03,25,06,55,5.20
2013,03,25,06,56,5.20
2013,03,25,06,57,5.20
2013,03,25,06,58,5.20
2013,03,25,06,59,5.30
2013,03,25,07,00,5.30
2013,03,25,07,01,5.30
2013,03,25,07,02,5.30
2013,03,25,07,03,5.30
2013,03,25,07,04,5.30
2013,03,25,07,05,5.30
2013,03,25,07,06,5.30
2013,03,25,07,07,5.30
2013,03,25,07,08,5.30
2013,03,25,07,09,5.30
2013,03,25,07,10,5.30
2013,03,25,07,11,5.30
2013,03,25,07,12,5.30
2013,03,25,07,13,5.30
2013,03,25,07,14,5.30
2013,03,25,07,15,5.30
2013,03,25,07,16,5.30
2013,03,25,07,17,5.30
2013,03,25,07,18,5.30
2013,03,25,07,19,5.30
2013,03,25,07,20,5.30
2013,03,25,07,21,5.30
2013,03,25,07,22,5.30
2013,03,25,07,23,5.30
2013,03,25,07,24,5.30
2013,03,25,07,25,5.30
2013,03,25,07,26,5.30
2013,03,25,07,27,5.30
2013,03,25,07,28,5.30
2013,03,25,07,29,5.30
2013,03,25,07,30,5.30
2013,03,25,07,31,5.30
2013,03,25,07,32,5.30
2013,03,25,07,33,5.30
2013,03,25,07,34,5.30
2013,03,25,07,35,5.30
2013,03,25,07,36,5.30
2013,03,25,07,37,5.30
2013,03,25,07,38,5.30
2013,03,25,07,39,5.30
2013,03,25,07,40,5.30
2013,03,25,07,41,5.30
2013,03,25,07,42,5.30
2013,03,25,07,43,5.30
2013,03,25,07,44,5.30
2013,03,25,07,45,5.30
2013,03,25,07,46,5.30
2013,03,25,07,47,5.30
2013,03,25,07,48,5.40
2013,03,25,07,49,5.40
2013,03,25,07,50,5.40
2013,03,25,07,51,5.40
2013,03,25,07,52,5.40
2013,03,25,07,53,5.40
2013,03,25,07,54,5.40
2013,03,25,07,55,5.40
2013,03,25,07,56,5.40
2013,03,25,07,57,5.40
2013,03,25,07,58,5.40
2013,03,25,07,59,5.40
2013,03,25,08,00,5.40
2013,03,25,08,01,5.40
2013,03,25,08,02,5.40
2013,03,25,08,03,5.40
2013,03,25,08,04,5.40
2013,03,25,08,05,5.40
2013,03,25,08,06,5.40
2013,03,25,08,07,5.40
2013,03,25,08,08,5.40
2013,03,25,08,09,5.40
2013,03,25,08,10,5.50
2013,03,25,08,11,5.50
2013,03,25,08,12,5.50
2013,03,25,08,13,5.60
2013,03,25,08,14,5.60
2013,03,25,08,15,5.60
2013,03,25,08,16,5.60
2013,03,25,08,17,5.60
2013,03,25,08,18,5.70
2013,03,25,08,19,5.70
2013,03,25,08,20,5.70
2013,03,25,08,21,5.70
2013,03,25,08,22,5.70
2013,03,25,08,23,5.70
2013,03,25,08,24,5.70
2013,03,25,08,25,5.70
2013,03,25,08,26,5.70
2013,03,25,08,27,5.70
2013,03,25,08,28,5.70
2013,03,25,08,29,5.80
2013,03,25,08,30,5.80
2013,03,25,08,31,5.80
2013,03,25,08,32,5.80
2013,03,25,08,33,5.80
2013,03,25,08,34,5.80
2013,03,25,08,35,5.80
2013,03,25,08,36,5.80
2013,03,25,08,37,5.80
2013,03,25,08,38,5.80
2013,03,25,08,39,5.80
2013,03,25,08,40,5.90
2013,03,25,08,41,5.90
2013,03,25,08,42,5.90
2013,03,25,08,43,5.90
2013,03,25,08,44,5.90
2013,03,25,08,45,5.90
2013,03,25,08,46,5.90
2013,03,25,08,47,5.90
2013,03,25,08,48,6.00
2013,03,25,08,49,6.00
2013,03,25,08,50,6.10
2013,03,25,08,51,6.10
2013,03,25,08,52,6.10
2013,03,25,08,53,6.20
2013,03,25,08,54,6.20
2013,03,25,08,55,6.20
2013,03,25,08,56,6.30
2013,03,25,08,57,6.30
2013,03,25,08,58,6.40
2013,03,25,08,59,6.40
2013,03,25,09,00,6.50
2013,03,25,09,01,6.50
2013,03,25,09,02,6.60
2013,03,25,09,03,6.70
2013,03,25,09,04,6.80
2013,03,25,09,05,6.80
2013,03,25,09,06,6.80
2013,03,25,09,07,6.90
2013,03,25,09,08,6.90
2013,03,25,09,09,6.90
2013,03,25,09,10,6.90
2013,03,25,09,11,7.00
2013,03,25,09,12,7.00
2013,03,25,09,13,7.00
2013,03,25,09,14,6.90
2013,03,25,09,15,6.90
2013,03,25,09,16,6.90
2013,03,25,09,17,6.80
2013,03,25,09,18,6.80
2013,03,25,09,19,6.80
2013,03,25,09,20,6.80
2013,03,25,09,21,6.80
2013,03,25,09,22,6.80
2013,03,25,09,23,6.80
2013,03,25,09,24,6.80
2013,03,25,09,25,6.80
2013,03,25,09,26,6.80
2013,03,25,09,27,6.80
2013,03,25,09,28,6.90
2013,03,25,09,29,6.90
2013,03,25,09,30,6.90
2013,03,25,09,31,6.90
2013,03,25,09,32,7.00
2013,03,25,09,33,6.90
2013,03,25,09,34,6.90
2013,03,25,09,35,7.00
2013,03,25,09,36,7.00
2013,03,25,09,37,7.10
2013,03,25,09,38,7.10
2013,03,25,09,39,7.10
2013,03,25,09,40,7.00
2013,03,25,09,41,7.00
2013,03,25,09,42,7.00
2013,03,25,09,43,7.00
2013,03,25,09,44,7.10
2013,03,25,09,45,7.10
2013,03,25,09,46,7.20
2013,03,25,09,47,7.20
2013,03,25,09,48,7.20
2013,03,25,09,49,7.20
2013,03,25,09,50,7.30
2013,03,25,09,51,7.30
2013,03,25,09,52,7.20
2013,03,25,09,53,7.20
2013,03,25,09,54,7.20
2013,03,25,09,55,7.20
2013,03,25,09,56,7.20
2013,03,25,09,57,7.20
2013,03,25,09,58,7.20
2013,03,25,09,59,7.20
2013,03,25,10,00,7.20
2013,03,25,10,01,7.10
2013,03,25,10,02,7.10
2013,03,25,10,03,7.10
2013,03,25,10,04,7.10
2013,03,25,10,05,7.10
2013,03,25,10,06,7.20
2013,03,25,10,07,7.20
2013,03,25,10,08,7.20
2013,03,25,10,09,7.10
2013,03,25,10,10,7.10
2013,03,25,10,11,7.10
2013,03,25,10,12,7.10
2013,03,25,10,13,7.10
2013,03,25,10,14,7.20
2013,03,25,10,15,7.20
2013,03,25,10,16,7.20
2013,03,25,10,17,7.20
2013,03,25,10,18,7.20
2013,03,25,10,19,7.30
2013,03,25,10,20,7.30
2013,03,25,10,21,7.30
2013,03,25,10,22,7.30
2013,03,25,18,44,9.80
2013,03,25,18,45,9.80
2013,03,25,18,46,9.80
2013,03,25,18,47,9.70
2013,03,25,18,48,9.70
2013,03,25,18,49,9.60
2013,03,25,18,50,9.60
2013,03,25,18,51,9.60
2013,03,25,18,52,9.50
2013,03,25,18,53,9.40
2013,03,25,18,54,9.40
2013,03,25,18,55,9.30
2013,03,25,18,56,9.30
2013,03,25,18,57,9.30
2013,03,25,18,58,9.30
2013,03,25,18,59,9.20
2013,03,25,19,00,9.20
2013,03,25,19,01,9.20
2013,03,25,19,02,9.10
2013,03,25,19,03,9.10
2013,03,25,19,04,9.00
2013,03,25,19,05,9.00
2013,03,25,19,06,8.90
2013,03,25,19,07,8.80
2013,03,25,19,08,8.80
2013,03,25,19,09,8.80
2013,03,25,19,10,8.70
2013,03,25,19,11,8.70
2013,03,25,19,12,8.60
2013,03,25,19,13,8.60
2013,03,25,19,14,8.50
2013,03,25,19,15,8.50
2013,03,25,19,16,8.40
2013,03,25,19,17,8.40
2013,03,25,19,18,8.40
2013,03,25,19,19,8.30
2013,03,25,19,20,8.30
2013,03,25,19,21,8.30
2013,03,25,19,22,8.20
2013,03,25,19,23,8.20
2013,03,25,19,24,8.20
2013,03,25,19,25,8.20
2013,03,25,19,26,8.10
2013,03,25,19,27,8.10
2013,03,25,19,28,8.10
2013,03,25,19,29,8.10
2013,03,25,19,30,8.00
2013,03,25,19,31,8.00
2013,03,25,19,32,8.00
2013,03,25,19,33,8.00
2013,03,25,19,34,7.90
2013,03,25,19,35,7.90
2013,03,25,19,36,7.90
2013,03,25,19,37,7.90
2013,03,25,19,38,7.90
2013,03,25,19,39,7.90
2013,03,25,19,40,7.90
2013,03,25,19,41,7.90
2013,03,25,19,42,8.00
2013,03,25,19,43,8.00
2013,03,25,19,44,8.00
2013,03,25,19,45,8.00
2013,03,25,19,46,8.00
2013,03,25,19,47,8.00
2013,03,25,19,48,8.00
2013,03,25,19,49,8.00
2013,03,25,19,50,7.90
2013,03,25,19,51,7.90
2013,03,25,19,52,7.90
2013,03,25,19,53,7.80
2013,03,25,19,54,7.80
2013,03,25,19,55,7.70
2013,03,25,19,56,7.70
2013,03,25,19,57,7.60
2013,03,25,19,58,7.50
2013,03,25,19,59,7.40
2013,03,25,20,00,7.40
2013,03,25,20,01,7.30
2013,03,25,20,02,7.30
2013,03,25,20,03,7.20
2013,03,25,20,04,7.20
2013,03,25,20,05,7.20
2013,03,25,20,06,7.20
2013,03,25,20,07,7.10
2013,03,25,20,08,7.10
2013,03,25,20,09,7.10
2013,03,25,20,10,7.10
2013,03,25,20,11,7.20
2013,03,25,20,12,7.20
2013,03,25,20,13,7.20
2013,03,25,20,14,7.10
2013,03,25,20,15,7.10
2013,03,25,20,16,7.10
2013,03,25,20,17,7.00
2013,03,25,20,18,6.90
2013,03,25,20,19,6.90
2013,03,25,20,20,6.90
2013,03,25,20,21,6.90
2013,03,25,20,22,6.90
2013,03,25,20,23,7.00
2013,03,25,20,24,7.00
2013,03,25,20,25,7.10
2013,03,25,20,26,7.20
2013,03,25,20,27,7.30
2013,03,25,20,28,7.40
2013,03,25,20,29,7.50
2013,03,25,20,30,7.60
2013,03,25,20,31,7.60
2013,03,25,20,32,7.70
2013,03,25,20,33,7.70
2013,03,25,20,34,7.80
2013,03,25,20,35,7.80
2013,03,25,20,36,7.80
2013,03,25,20,37,7.80
2013,03,25,20,38,7.80
2013,03,25,20,39,7.80
2013,03,25,20,40,7.80
2013,03,25,20,41,7.80
2013,03,25,20,42,7.80
2013,03,25,20,43,7.80
2013,03,25,20,44,7.80
2013,03,25,20,45,7.80
2013,03,25,20,46,7.80
2013,03,25,20,47,7.80
2013,03,25,20,48,7.80
2013,03,25,20,49,7.70
2013,03,25,20,50,7.60
2013,03,25,20,51,7.60
2013,03,25,20,52,7.50
2013,03,25,20,53,7.40
2013,03,25,20,54,7.30
2013,03,25,20,55,7.30
2013,03,25,20,56,7.30
2013,03,25,20,57,7.20
2013,03,25,20,58,7.20
2013,03,25,20,59,7.20
2013,03,25,21,00,7.20
2013,03,25,21,01,7.20
2013,03,25,21,02,7.20
2013,03,25,21,03,7.20
2013,03,25,21,04,7.10
2013,03,25,21,05,7.00
2013,03,25,21,06,7.00
2013,03,25,21,07,6.90
2013,03,25,21,08,6.80
2013,03,25,21,09,6.80
2013,03,25,21,10,6.70
2013,03,25,21,11,6.70
2013,03,25,21,12,6.70
2013,03,25,21,13,6.70
2013,03,25,21,14,6.70
2013,03,25,21,15,6.70
2013,03,25,21,16,6.70
2013,03,25,21,17,6.70
2013,03,25,21,18,6.70
2013,03,25,21,19,6.70
2013,03,25,21,20,6.70
2013,03,25,21,21,6.80
2013,03,25,21,22,6.80
2013,03,25,21,23,6.80
2013,03,25,21,24,6.90
2013,03,25,21,25,7.00
2013,03,25,21,26,7.10
2013,03,25,21,27,7.20
2013,03,25,21,28,7.20
2013,03,25,21,29,7.20
2013,03,25,21,30,7.30
2013,03,25,21,31,7.30
2013,03,25,21,32,7.30
2013,03,25,21,33,7.30
2013,03,25,21,34,7.30
2013,03,25,21,35,7.30
2013,03,25,21,36,7.40
2013,03,25,21,37,7.40
2013,03,25,21,38,7.40
2013,03,25,21,39,7.50
2013,03,25,21,40,7.50
2013,03,25,21,41,7.50
2013,03,25,21,42,7.60
2013,03,25,21,43,7.60
2013,03,25,21,44,7.70
2013,03,25,21,45,7.70
2013,03,25,21,46,7.70
2013,03,25,21,47,7.70
2013,03,25,21,48,7.70
2013,03,25,21,49,7.70
2013,03,25,21,50,7.70
2013,03,25,21,51,7.70
2013,03,25,21,52,7.70
2013,03,25,21,53,7.70
2013,03,25,21,54,7.70
2013,03,25,21,55,7.70
2013,03,25,21,56,7.80
2013,03,25,21,57,7.80
2013,03,25,21,58,7.80
2013,03,25,21,59,7.80
2013,03,25,22,00,7.80
2013,03,25,22,01,7.80
2013,03,25,22,02,7.90
2013,03,25,22,03,7.90
2013,03,25,22,04,7.90
2013,03,25,22,05,7.90
2013,03,25,22,06,7.90
2013,03,25,22,07,7.90
2013,03,25,22,08,7.90
2013,03,25,22,09,7.80
2013,03,25,22,10,7.80
2013,03,25,22,11,7.80
2013,03,25,22,12,7.90
2013,03,25,22,13,7.90
2013,03,25,22,14,7.90
2013,03,25,22,15,7.90
2013,03,25,22,16,7.90
2013,03,25,22,17,7.90
2013,03,25,22,18,7.90
2013,03,25,22,19,7.80
2013,03,25,22,20,7.80
2013,03,25,22,21,7.70
2013,03,25,22,22,7.50
2013,03,25,22,23,7.30
2013,03,25,22,24,7.20
2013,03,25,22,25,7.10
2013,03,25,22,26,7.00
2013,03,25,22,27,6.90
2013,03,25,22,28,6.90
2013,03,25,22,29,6.80
2013,03,25,22,30,6.80
2013,03,25,22,31,6.80
2013,03,25,22,32,6.70
2013,03,25,22,33,6.70
2013,03,25,22,34,6.70
2013,03,25,22,35,6.70
2013,03,25,22,36,6.70
2013,03,25,22,37,6.70
2013,03,25,22,38,6.70
2013,03,25,22,39,6.70
2013,03,25,22,40,6.80
2013,03,25,22,41,6.80
2013,03,25,22,42,6.80
2013,03,25,22,43,6.90
2013,03,25,22,44,6.90
2013,03,25,22,45,6.90
2013,03,25,22,46,7.00
2013,03,25,22,47,7.00
2013,03,25,22,48,7.10
2013,03,25,22,49,7.10
2013,03,25,22,50,7.20
2013,03,25,22,51,7.20
2013,03,25,22,52,7.20
2013,03,25,22,53,7.30
2013,03,25,22,54,7.40
2013,03,25,22,55,7.40
2013,03,25,22,56,7.50
2013,03,25,22,57,7.50
2013,03,25,22,58,7.60
2013,03,25,22,59,7.60
2013,03,25,23,00,7.70
2013,03,25,23,01,7.70
2013,03,25,23,02,7.70
2013,03,25,23,03,7.70
2013,03,25,23,04,7.70
2013,03,25,23,05,7.70
2013,03,25,23,06,7.70
2013,03,25,23,07,7.70
2013,03,25,23,08,7.70
2013,03,25,23,09,7.70
2013,03,25,23,10,7.70
2013,03,25,23,11,7.80
2013,03,25,23,12,7.80
2013,03,25,23,13,7.80
2013,03,25,23,14,7.80
2013,03,25,23,15,7.80
2013,03,25,23,16,7.80
2013,03,25,23,17,7.80
2013,03,25,23,18,7.80
2013,03,25,23,19,7.90
2013,03,25,23,20,7.90
2013,03,25,23,21,7.90
2013,03,25,23,22,7.90
2013,03,25,23,23,7.90
2013,03,25,23,24,7.90
2013,03,25,23,25,7.90
2013,03,25,23,26,8.00
2013,03,25,23,27,8.00
2013,03,25,23,28,8.00
2013,03,25,23,29,7.90
2013,03,25,23,30,8.00
2013,03,25,23,31,8.00
2013,03,25,23,32,8.00
2013,03,25,23,33,8.00
2013,03,25,23,34,7.90
2013,03,25,23,35,7.90
2013,03,25,23,36,7.90
2013,03,25,23,37,8.00
2013,03,25,23,38,8.00
2013,03,25,23,39,8.10
2013,03,25,23,40,8.10
2013,03,25,23,41,8.10
2013,03,25,23,42,8.20
2013,03,25,23,43,8.20
2013,03,25,23,44,8.20
2013,03,25,23,45,8.20
2013,03,25,23,46,8.20
2013,03,25,23,47,8.20
2013,03,25,23,48,8.20
2013,03,25,23,49,8.20
2013,03,25,23,50,8.20
2013,03,25,23,51,8.20
2013,03,25,23,52,8.20
2013,03,25,23,53,8.20
2013,03,25,23,54,8.20
2013,03,25,23,55,8.20
2013,03,25,23,56,8.20
2013,03,25,23,57,8.20
2013,03,25,23,58,8.20
2013,03,25,23,59,8.20
